Flag for Kuwait Weather past 2 weeks in Kuwait City, Kuwait

Now
95 °F

Clear.


Feels Like: 96 °F
Forecast: 91 / 109 °F
Wind: 7 mph from West

Location: Kuwait International Airport

Current Time: Aug 3, 2015 at 1:29:53 AM

Latest Report: Aug 3, 2015 at 1:00 AM


Visibility: 10 mi

Pressure: 29.56 "Hg

Humidity: 34%

Dew point: 63 °F

Historic Weather in Kuwait City — Graph

°F

Kuwait City temperature yesterday

Maximum temperature yesterday: 115 °F (at 11:00 AM)
Minimum temperature yesterday: 88 °F (at 5:00 AM)
Average temperature yesterday: 101 °F

Past Weeks' High & Low Weather Summary

 TemperatureHumidityPressure
High120 °F (Jul 29, 2:00 PM)67% (Jul 23, 5:00 AM)29.59 "Hg (Jul 23, 5:00 AM)
Low84 °F (Jul 25, 6:00 AM)6% (Jul 24, 12:00 PM)29.33 "Hg (Jul 19, 6:00 PM)
Average103 °F20%29.46 "Hg
* Reported Midnight between Jul 18 and Jul 19 — Midnight between Aug 2 and Aug 3, Kuwait City, Weather by CustomWeather, © 2015

Note: Actual official high and low records may vary slightly from our data, if they occured in-between our weather recording intervals... More about our weather records

Advertising

Kuwait City weather history for previous 24 hours

 ConditionsComfort  
Time TempWeatherWind HumidityBarometerVisibility
12:00 AM
Mon, Aug 3
97 °FClear.3 mph37%29.56 "Hg10 mi
11:00 PM
Sun, Aug 2
95 °FClear.3 mph39%29.56 "Hg10 mi
10:00 PM97 °FClear.3 mph37%29.56 "Hg10 mi
9:00 PM97 °FClear.No wind39%29.56 "Hg10 mi
8:00 PM100 °FClear.No wind35%29.56 "Hg4 mi
7:00 PM102 °FClear.8 mph31%29.53 "Hg4 mi
6:00 PM104 °FSunny.14 mph33%29.50 "Hg4 mi
5:00 PM104 °FSunny.15 mph38%29.50 "Hg4 mi
4:30 PM106 °FSunny.17 mph34%29.50 "Hg4 mi
3:59 PM108 °FClear.16 mph30%29.53 "Hg4 mi
3:00 PM108 °FClear.13 mph34%29.53 "Hg4 mi
2:00 PM111 °FSunny.8 mph24%29.53 "Hg4 mi
1:00 PM113 °FClear.6 mph21%29.56 "Hg4 mi
12:00 PM109 °FSunny.6 mph28%29.56 "Hg4 mi
11:00 AM115 °FSunny.3 mph19%29.56 "Hg4 mi
10:00 AM109 °FClear.5 mph23%29.59 "Hg4 mi
9:00 AM106 °FClear.3 mph25%29.59 "Hg4 mi
8:00 AM102 °FClear.No wind33%29.56 "Hg4 mi
7:00 AM95 °FSunny.No wind32%29.56 "Hg4 mi
6:00 AM90 °FSunny.5 mph41%29.56 "Hg3 mi
5:00 AM88 °FClear.No wind43%29.53 "Hg3 mi
4:00 AM91 °FClear.3 mph41%29.53 "Hg5 mi
3:00 AM93 °FClear.6 mph39%29.50 "Hg4 mi
2:00 AM93 °FClear.3 mph44%29.50 "Hg4 mi
1:00 AM93 °FClear.6 mph53%29.53 "Hg4 mi
Weather by CustomWeather, © 2015

See weather overviewHow to use our weather pages